M I D A S
Marine Information and Data Acquisition System
Tripno 645 of the Zeeleeuw from 2004-02-10 07:25:09 to 2004-02-10 16:58:56
Back to CruiseResearch ActivitiesStationsMapUnderway DataData graphs

EquipmentUnitsComments
TimeDGPSUTC
LatitudeDGPSDM.mWGS84
LongitudeDGPSDM.mWGS84
SpeedMeteo Stationm/sRelative wind speed
DirectionMeteo StationdegRelative wind direction
TemperatureMeteo Stationdeg CelciusAir temperature
PressureMeteo StationPaAtmospheric pressure
HumidityMeteo Station%Relative humidity
Missing or incorrect values are displayed as -999
Metereological data collected by the RV Zeeleeuw from 2004-02-10 07:25:09 to 2004-02-10 16:58:56
                                                                                    Next 1000 lines
Time Latitude Longitude Speed Direction Temperature Pressure Humidity
2004-02-10 07:25:20 51°13.59 2°56.107 2.5 136 0.5 103320 79
2004-02-10 07:25:24 51°13.591 2°56.105 2.6 140 0.5 103320 79
2004-02-10 07:25:29 51°13.592 2°56.101 3.7 138 0.5 103320 79
2004-02-10 07:25:34 51°13.593 2°56.097 2.6 129 0.5 103320 79
2004-02-10 07:25:40 51°13.595 2°56.092 3.2 125 0.5 103320 79
2004-02-10 07:25:45 51°13.597 2°56.086 3.1 129 0.5 103320 79
2004-02-10 07:25:50 51°13.599 2°56.081 2.1 146 0.5 103320 79
2004-02-10 07:25:55 51°13.6 2°56.075 2.2 146 0.5 103320 79
2004-02-10 07:26:00 51°13.602 2°56.069 2.6 151 0.5 103320 79
2004-02-10 07:26:05 51°13.603 2°56.062 2.3 143 0.5 103320 79
2004-02-10 07:26:10 51°13.605 2°56.056 3.7 149 0.5 103320 79
2004-02-10 07:26:14 51°13.606 2°56.05 4.2 147 0.5 103320 79
2004-02-10 07:26:20 51°13.609 2°56.041 4.1 145 0.5 103320 79
2004-02-10 07:26:25 51°13.611 2°56.034 4 150 0.5 103320 79
2004-02-10 07:26:30 51°13.613 2°56.026 4.1 150 0.5 103320 79
2004-02-10 07:26:35 51°13.616 2°56.018 4.2 149 0.5 103320 79
2004-02-10 07:26:40 51°13.618 2°56.01 4.3 135 0.5 103320 79
2004-02-10 07:26:45 51°13.621 2°56.001 2.9 155 0.5 103320 79
2004-02-10 07:26:50 51°13.623 2°55.993 3.2 140 0.5 103310 79
2004-02-10 07:26:55 51°13.626 2°55.984 2.4 162 0.5 103310 79
2004-02-10 07:27:00 51°13.629 2°55.976 3.6 167 0.5 103310 79
2004-02-10 07:27:05 51°13.633 2°55.967 3.5 159 0.5 103310 79
2004-02-10 07:27:10 51°13.636 2°55.957 3.9 141 0.5 103320 79
2004-02-10 07:27:15 51°13.639 2°55.948 2.7 144 0.5 103320 79
2004-02-10 07:27:20 51°13.642 2°55.939 2.5 165 0.5 103310 79
2004-02-10 07:27:25 51°13.645 2°55.93 3.5 161 0.5 103310 79
2004-02-10 07:27:30 51°13.648 2°55.92 2.7 155 0.5 103310 79
2004-02-10 07:27:35 51°13.651 2°55.911 5 146 0.5 103310 79
2004-02-10 07:27:40 51°13.654 2°55.901 5.2 154 0.5 103310 79
2004-02-10 07:27:45 51°13.656 2°55.891 5 138 0.5 103310 79
2004-02-10 07:27:50 51°13.659 2°55.882 3.6 173 0.5 103320 79
2004-02-10 07:27:55 51°13.661 2°55.872 4.1 163 0.5 103320 79
2004-02-10 07:28:00 51°13.663 2°55.862 3.2 160 0.6 103320 79
2004-02-10 07:28:05 51°13.665 2°55.851 3.3 155 0.6 103320 79
2004-02-10 07:28:10 51°13.667 2°55.841 4.2 154 0.5 103310 79
2004-02-10 07:28:15 51°13.669 2°55.831 4.2 167 0.5 103310 79
2004-02-10 07:28:20 51°13.67 2°55.821 4.3 154 0.6 103320 79
2004-02-10 07:28:25 51°13.671 2°55.812 4.2 149 0.6 103320 79
2004-02-10 07:28:30 51°13.672 2°55.803 4.1 150 0.5 103310 79
2004-02-10 07:28:34 51°13.673 2°55.797 4 146 0.5 103310 79
2004-02-10 07:28:39 51°13.674 2°55.79 3.5 147 0.6 103310 79
2004-02-10 07:28:44 51°13.675 2°55.784 2.8 155 0.6 103310 79
2004-02-10 07:28:50 51°13.675 2°55.78 2.6 161 0.6 103310 79
2004-02-10 07:28:54 51°13.676 2°55.779 2.7 160 0.6 103310 79
2004-02-10 07:29:00 51°13.677 2°55.779 1.6 140 0.6 103310 79
2004-02-10 07:29:04 51°13.678 2°55.781 1.6 138 0.6 103310 79
2004-02-10 07:29:09 51°13.68 2°55.783 2 134 0.6 103310 79
2004-02-10 07:29:14 51°13.682 2°55.785 3.2 155 0.6 103310 79
2004-02-10 07:29:19 51°13.684 2°55.786 2.4 163 0.6 103310 79
2004-02-10 07:29:24 51°13.685 2°55.786 2.3 170 0.6 103310 79
2004-02-10 07:29:30 51°13.685 2°55.785 1.9 203 0.6 103310 79
2004-02-10 07:29:34 51°13.685 2°55.784 1.7 207 0.6 103310 79
2004-02-10 07:29:40 51°13.684 2°55.781 1.8 217 0.6 103310 79
2004-02-10 07:29:44 51°13.683 2°55.779 2.2 204 0.6 103310 79
2004-02-10 07:29:49 51°13.681 2°55.776 4 195 0.6 103310 79
2004-02-10 07:29:55 51°13.68 2°55.773 3.5 208 0.6 103310 79
2004-02-10 07:30:00 51°13.68 2°55.772 4.1 216 0.6 103310 79
2004-02-10 07:30:05 51°13.681 2°55.771 2.9 216 0.6 103310 79
2004-02-10 07:30:09 51°13.683 2°55.77 1.3 200 0.6 103310 79
2004-02-10 07:30:15 51°13.687 2°55.769 1.1 230 0.6 103310 79
2004-02-10 07:30:20 51°13.691 2°55.767 1.8 280 0.7 103310 80
2004-02-10 07:30:24 51°13.694 2°55.765 1.4 286 0.7 103310 80
2004-02-10 07:30:29 51°13.698 2°55.762 2.1 291 0.7 103320 79
2004-02-10 07:30:34 51°13.703 2°55.757 1.9 337 0.7 103320 79
2004-02-10 07:30:40 51°13.709 2°55.75 1.6 346 0.7 103310 79
2004-02-10 07:30:44 51°13.714 2°55.746 1.8 343 0.7 103310 79
2004-02-10 07:30:49 51°13.72 2°55.739 2.3 334 0.7 103310 79
2004-02-10 07:30:54 51°13.726 2°55.731 2.3 329 0.7 103310 79
2004-02-10 07:31:00 51°13.734 2°55.723 2.8 330 0.7 103310 79
2004-02-10 07:31:04 51°13.74 2°55.716 2.6 327 0.7 103310 79
2004-02-10 07:31:09 51°13.747 2°55.709 2.5 330 0.7 103300 79
2004-02-10 07:31:14 51°13.755 2°55.701 2.7 322 0.7 103300 79
2004-02-10 07:31:18 51°13.761 2°55.694 2.9 298 0.7 103300 79
2004-02-10 07:31:24 51°13.771 2°55.684 2.3 301 0.7 103300 79
2004-02-10 07:31:29 51°13.779 2°55.676 2.4 349 0.7 103300 79
2004-02-10 07:31:34 51°13.788 2°55.667 2.2 343 0.7 103300 79
2004-02-10 07:31:39 51°13.797 2°55.659 1.9 342 0.7 103310 79
2004-02-10 07:31:44 51°13.806 2°55.65 2.5 8 0.7 103310 79
2004-02-10 07:31:49 51°13.816 2°55.642 2.5 4 0.7 103310 79
2004-02-10 07:31:54 51°13.825 2°55.634 1.9 355 0.7 103310 79
2004-02-10 07:31:58 51°13.833 2°55.628 2.9 337 0.7 103310 79
2004-02-10 07:32:04 51°13.845 2°55.619 2.9 345 0.7 103310 79
2004-02-10 07:32:09 51°13.855 2°55.611 2.9 352 0.8 103310 79
2004-02-10 07:32:15 51°13.868 2°55.602 3.2 356 0.8 103310 79
2004-02-10 07:32:20 51°13.878 2°55.595 3.9 343 0.8 103310 79
2004-02-10 07:32:24 51°13.887 2°55.589 3.1 340 0.8 103310 79
2004-02-10 07:32:29 51°13.897 2°55.581 3.7 335 0.8 103310 79
2004-02-10 07:32:34 51°13.908 2°55.574 3.9 339 0.8 103310 79
2004-02-10 07:32:38 51°13.916 2°55.568 4.3 348 0.8 103310 79
2004-02-10 07:32:44 51°13.929 2°55.559 4.2 321 0.8 103310 79
2004-02-10 07:32:49 51°13.94 2°55.551 4.9 341 0.8 103310 79
2004-02-10 07:32:54 51°13.951 2°55.544 4.1 328 0.8 103310 79
2004-02-10 07:33:00 51°13.964 2°55.534 4.3 314 0.8 103300 79
2004-02-10 07:33:04 51°13.972 2°55.528 3.7 351 0.8 103300 79
2004-02-10 07:33:09 51°13.983 2°55.52 3.6 333 0.8 103310 79
2004-02-10 07:33:14 51°13.993 2°55.512 2.7 339 0.8 103310 79
2004-02-10 07:33:20 51°14.006 2°55.503 3.2 340 0.8 103300 79
2004-02-10 07:33:24 51°14.015 2°55.497 4.1 340 0.8 103300 79
2004-02-10 07:33:29 51°14.025 2°55.489 3.2 345 0.8 103310 79
2004-02-10 07:33:34 51°14.036 2°55.482 3.3 344 0.8 103310 79
2004-02-10 07:33:39 51°14.047 2°55.474 3.6 348 0.9 103310 79
2004-02-10 07:33:44 51°14.058 2°55.466 4 333 0.9 103310 79
2004-02-10 07:33:49 51°14.069 2°55.458 3.7 324 0.9 103310 79
2004-02-10 07:33:54 51°14.08 2°55.45 2.6 331 0.9 103310 79
2004-02-10 07:33:58 51°14.089 2°55.444 3.1 350 0.9 103310 79
2004-02-10 07:34:04 51°14.103 2°55.433 3.6 350 0.9 103310 79
2004-02-10 07:34:09 51°14.114 2°55.424 3.6 327 0.9 103310 79
2004-02-10 07:34:14 51°14.126 2°55.415 3.7 345 0.9 103310 79
2004-02-10 07:34:20 51°14.14 2°55.403 4 38 0.9 103300 79
2004-02-10 07:34:24 51°14.15 2°55.395 3.9 321 0.9 103300 79
2004-02-10 07:34:29 51°14.162 2°55.383 4.2 337 0.9 103300 79
2004-02-10 07:34:34 51°14.174 2°55.372 4.6 354 0.9 103300 79
2004-02-10 07:34:40 51°14.189 2°55.357 4.4 351 1 103300 79
2004-02-10 07:34:44 51°14.198 2°55.346 5 330 1 103300 79
2004-02-10 07:34:49 51°14.21 2°55.333 4.7 339 1 103300 79
2004-02-10 07:34:54 51°14.222 2°55.318 4.5 340 1 103300 79
2004-02-10 07:34:58 51°14.231 2°55.306 5.2 341 1 103290 79
2004-02-10 07:35:04 51°14.245 2°55.287 5.1 333 1 103290 79
2004-02-10 07:35:09 51°14.256 2°55.27 5.4 349 1 103300 79
2004-02-10 07:35:14 51°14.268 2°55.251 4.9 344 1 103300 79
2004-02-10 07:35:18 51°14.276 2°55.236 7.4 328 1.1 103300 79
2004-02-10 07:35:24 51°14.289 2°55.213 6.6 333 1.1 103300 79
2004-02-10 07:35:29 51°14.299 2°55.193 8.6 332 1.1 103290 79
2004-02-10 07:35:34 51°14.309 2°55.172 9.7 325 1.1 103290 79
2004-02-10 07:35:39 51°14.319 2°55.151 9.2 322 1.1 103290 79
2004-02-10 07:35:44 51°14.329 2°55.13 7.5 334 1.1 103290 79
2004-02-10 07:35:49 51°14.34 2°55.11 6 340 1.2 103290 79
2004-02-10 07:35:54 51°14.351 2°55.089 8.3 326 1.2 103290 79
2004-02-10 07:36:00 51°14.364 2°55.065 7.7 322 1.3 103280 80
2004-02-10 07:36:04 51°14.374 2°55.05 7 320 1.3 103280 80
2004-02-10 07:36:09 51°14.386 2°55.031 7.5 319 1.4 103280 80
2004-02-10 07:36:14 51°14.398 2°55.011 7.6 319 1.4 103280 80
2004-02-10 07:36:18 51°14.408 2°54.996 6.8 319 1.4 103300 80
2004-02-10 07:36:24 51°14.422 2°54.972 7.5 323 1.4 103300 80
2004-02-10 07:36:30 51°14.436 2°54.947 7 323 1.4 103280 80
2004-02-10 07:36:34 51°14.445 2°54.93 7.9 320 1.4 103280 80
2004-02-10 07:36:40 51°14.457 2°54.903 7.9 324 1.5 103270 79
2004-02-10 07:36:44 51°14.465 2°54.884 8.1 323 1.5 103270 79
2004-02-10 07:36:49 51°14.474 2°54.861 7.4 320 1.5 103270 79
2004-02-10 07:36:54 51°14.483 2°54.837 7.9 319 1.5 103270 79
2004-02-10 07:36:58 51°14.49 2°54.819 7.2 320 1.5 103270 79
2004-02-10 07:37:04 51°14.5 2°54.792 7.5 320 1.5 103270 79
2004-02-10 07:37:09 51°14.507 2°54.77 6.8 318 1.5 103270 79
2004-02-10 07:37:14 51°14.515 2°54.748 7.1 319 1.5 103270 79
2004-02-10 07:37:18 51°14.52 2°54.732 6.8 314 1.5 103270 78
2004-02-10 07:37:24 51°14.529 2°54.707 7.1 43 1.5 103270 78
2004-02-10 07:37:29 51°14.535 2°54.687 7.4 316 1.5 103280 78
2004-02-10 07:37:34 51°14.542 2°54.668 7.7 316 1.5 103280 78
2004-02-10 07:37:38 51°14.547 2°54.653 7.9 227 1.5 103280 78
2004-02-10 07:37:44 51°14.555 2°54.632 8.3 312 1.5 103280 78
2004-02-10 07:37:49 51°14.562 2°54.614 8.6 309 1.5 103280 78
2004-02-10 07:37:54 51°14.568 2°54.597 8.1 314 1.5 103280 78
2004-02-10 07:38:00 51°14.576 2°54.576 8.6 309 1.6 103280 78
2004-02-10 07:38:04 51°14.582 2°54.563 8.1 307 1.6 103280 78
2004-02-10 07:38:10 51°14.59 2°54.544 8 308 1.6 103270 78
2004-02-10 07:38:14 51°14.595 2°54.531 7.3 306 1.6 103270 78
2004-02-10 07:38:20 51°14.603 2°54.512 8.4 314 1.7 103270 79
2004-02-10 07:38:24 51°14.609 2°54.498 8.2 236 1.7 103270 79
2004-02-10 07:38:29 51°14.617 2°54.479 8.1 227 1.7 103270 79
2004-02-10 07:38:34 51°14.625 2°54.46 8.7 42 1.7 103270 79
2004-02-10 07:38:40 51°14.635 2°54.435 8.2 315 1.7 103280 79
2004-02-10 07:38:44 51°14.643 2°54.419 9.3 316 1.7 103280 79
2004-02-10 07:38:49 51°14.652 2°54.398 9.7 316 1.8 103270 79
2004-02-10 07:38:54 51°14.661 2°54.376 9.5 319 1.8 103270 79
2004-02-10 07:38:58 51°14.669 2°54.358 9.9 319 1.9 103260 80
2004-02-10 07:39:04 51°14.68 2°54.331 9.6 321 1.9 103260 80
2004-02-10 07:39:09 51°14.69 2°54.308 9.6 321 1.9 103250 80
2004-02-10 07:39:14 51°14.7 2°54.285 9.1 319 1.9 103250 80
2004-02-10 07:39:20 51°14.714 2°54.258 9.5 319 2 103260 80
2004-02-10 07:39:24 51°14.723 2°54.24 9.5 320 2 103260 80
2004-02-10 07:39:29 51°14.734 2°54.217 10.2 322 2 103250 80
2004-02-10 07:39:34 51°14.745 2°54.193 10.2 320 2 103250 80
2004-02-10 07:39:39 51°14.756 2°54.168 10.3 324 2 103250 80
2004-02-10 07:39:44 51°14.766 2°54.143 9.5 325 2 103250 80
2004-02-10 07:39:49 51°14.776 2°54.117 10.4 324 2.1 103250 80
2004-02-10 07:39:54 51°14.786 2°54.091 10.3 324 2.1 103250 80
2004-02-10 07:40:00 51°14.797 2°54.059 9.6 327 2.1 103240 80
2004-02-10 07:40:04 51°14.804 2°54.038 10.9 324 2.1 103240 80
2004-02-10 07:40:09 51°14.813 2°54.011 9.7 324 2.1 103240 80
2004-02-10 07:40:14 51°14.823 2°53.984 9.5 327 2.1 103240 80
2004-02-10 07:40:19 51°14.832 2°53.957 9.6 328 2.2 103240 80
2004-02-10 07:40:24 51°14.84 2°53.93 9.5 327 2.2 103240 80
2004-02-10 07:40:29 51°14.849 2°53.903 10.7 326 2.2 103240 80
2004-02-10 07:40:34 51°14.858 2°53.875 10.9 330 2.2 103240 80
2004-02-10 07:40:40 51°14.868 2°53.842 9.8 330 2.2 103240 80
2004-02-10 07:40:44 51°14.876 2°53.82 11.5 327 2.2 103240 80
2004-02-10 07:40:49 51°14.884 2°53.793 11.2 326 2.3 103240 79
2004-02-10 07:40:54 51°14.893 2°53.765 11.2 327 2.3 103240 79
2004-02-10 07:40:59 51°14.902 2°53.738 9.9 326 2.3 103240 80
2004-02-10 07:41:04 51°14.911 2°53.71 9.6 326 2.3 103240 80
2004-02-10 07:41:09 51°14.92 2°53.683 10.7 324 2.3 103220 80
2004-02-10 07:41:14 51°14.929 2°53.655 10.8 324 2.3 103220 80
2004-02-10 07:41:20 51°14.94 2°53.622 10.9 325 2.4 103220 80
2004-02-10 07:41:24 51°14.947 2°53.6 10.4 320 2.4 103220 80
2004-02-10 07:41:29 51°14.956 2°53.573 9.9 321 2.4 103220 80
2004-02-10 07:41:34 51°14.966 2°53.546 10.1 326 2.4 103220 80
2004-02-10 07:41:40 51°14.978 2°53.512 10.1 317 2.5 103220 80
2004-02-10 07:41:44 51°14.985 2°53.491 9.7 316 2.5 103220 80
2004-02-10 07:41:49 51°14.995 2°53.463 10 321 2.5 103220 80
2004-02-10 07:41:54 51°15.005 2°53.436 10.9 317 2.5 103220 80
2004-02-10 07:42:00 51°15.016 2°53.403 9.8 318 2.6 103220 80
2004-02-10 07:42:04 51°15.024 2°53.382 10.1 320 2.6 103220 80
2004-02-10 07:42:09 51°15.034 2°53.355 9.7 320 2.6 103220 80
2004-02-10 07:42:14 51°15.044 2°53.327 10.5 320 2.6 103220 80
2004-02-10 07:42:20 51°15.055 2°53.295 10.5 322 2.6 103230 80
2004-02-10 07:42:24 51°15.063 2°53.273 10.3 324 2.6 103230 80
2004-02-10 07:42:29 51°15.073 2°53.245 10.3 322 2.6 103230 80
2004-02-10 07:42:34 51°15.082 2°53.217 10.1 320 2.6 103230 80
2004-02-10 07:42:40 51°15.093 2°53.184 10.3 323 2.7 103220 80
2004-02-10 07:42:44 51°15.1 2°53.161 10.7 324 2.7 103220 80
2004-02-10 07:42:50 51°15.111 2°53.127 10 324 2.7 103230 80
2004-02-10 07:42:54 51°15.119 2°53.105 11 326 2.7 103230 80
2004-02-10 07:42:58 51°15.126 2°53.083 10.4 325 2.8 103220 80
2004-02-10 07:43:04 51°15.138 2°53.05 10.3 326 2.8 103220 80
2004-02-10 07:43:09 51°15.148 2°53.022 12 326 2.8 103220 80
2004-02-10 07:43:14 51°15.158 2°52.994 10.8 327 2.8 103220 80
2004-02-10 07:43:18 51°15.166 2°52.972 11.1 325 2.9 103220 80
2004-02-10 07:43:24 51°15.177 2°52.938 11.1 329 2.9 103220 80
2004-02-10 07:43:30 51°15.187 2°52.904 13.2 332 2.9 103220 80
2004-02-10 07:43:34 51°15.194 2°52.881 11.9 334 2.9 103220 80
2004-02-10 07:43:38 51°15.201 2°52.857 12 331 3 103220 80
2004-02-10 07:43:44 51°15.211 2°52.822 12.5 331 3 103220 80
2004-02-10 07:43:48 51°15.218 2°52.799 12 333 3 103210 80
2004-02-10 07:43:54 51°15.227 2°52.764 12.3 328 3 103210 80
2004-02-10 07:43:58 51°15.234 2°52.74 12.7 328 3.1 103220 81
2004-02-10 07:44:04 51°15.244 2°52.705 11.9 327 3.1 103220 81
2004-02-10 07:44:09 51°15.252 2°52.675 12.5 330 3.2 103210 80
2004-02-10 07:44:14 51°15.261 2°52.646 12.1 331 3.2 103210 80
2004-02-10 07:44:18 51°15.268 2°52.623 13.2 325 3.2 103260 80
2004-02-10 07:44:24 51°15.278 2°52.588 13.3 327 3.2 103260 80
2004-02-10 07:44:29 51°15.287 2°52.559 12.4 328 3.2 103210 80
2004-02-10 07:44:34 51°15.296 2°52.531 11.6 329 3.2 103210 80
2004-02-10 07:44:40 51°15.306 2°52.496 11 332 3.3 103210 80
2004-02-10 07:44:44 51°15.314 2°52.473 12.9 329 3.3 103210 80
2004-02-10 07:44:49 51°15.322 2°52.444 12.5 331 3.3 103210 80
2004-02-10 07:44:54 51°15.331 2°52.415 13 328 3.3 103210 80
2004-02-10 07:44:58 51°15.338 2°52.392 13 329 3.3 103210 80
2004-02-10 07:45:04 51°15.346 2°52.356 13.3 330 3.3 103210 80
2004-02-10 07:45:09 51°15.352 2°52.325 12.5 332 3.4 103210 80
2004-02-10 07:45:14 51°15.358 2°52.294 13.4 334 3.4 103210 80
2004-02-10 07:45:20 51°15.363 2°52.257 12.4 335 3.4 103220 80
2004-02-10 07:45:24 51°15.367 2°52.232 11.8 335 3.4 103220 80
2004-02-10 07:45:29 51°15.372 2°52.201 12.6 335 3.5 103200 80
2004-02-10 07:45:34 51°15.376 2°52.169 12.9 335 3.5 103200 80
2004-02-10 07:45:40 51°15.381 2°52.132 13 335 3.5 103210 79
2004-02-10 07:45:44 51°15.384 2°52.107 12.6 332 3.5 103210 79
2004-02-10 07:45:49 51°15.389 2°52.075 12.3 335 3.5 103220 80
2004-02-10 07:45:54 51°15.393 2°52.044 13 336 3.5 103220 80
2004-02-10 07:45:58 51°15.395 2°52.018 13.1 334 3.6 103210 79
2004-02-10 07:46:04 51°15.399 2°51.98 12.6 338 3.6 103210 79
2004-02-10 07:46:09 51°15.402 2°51.948 11.6 337 3.6 103210 79
2004-02-10 07:46:14 51°15.405 2°51.917 12.6 333 3.6 103210 79
2004-02-10 07:46:20 51°15.408 2°51.878 13 338 3.6 103220 79
2004-02-10 07:46:25 51°15.41 2°51.846 12.2 340 3.6 103220 79
2004-02-10 07:46:29 51°15.412 2°51.821 12 335 3.6 103220 79
2004-02-10 07:46:34 51°15.414 2°51.789 13.8 342 3.6 103220 79
2004-02-10 07:46:39 51°15.416 2°51.757 12.1 336 3.6 103220 79
2004-02-10 07:46:44 51°15.418 2°51.725 12.4 334 3.6 103220 79
2004-02-10 07:46:50 51°15.421 2°51.686 12.3 338 3.7 103210 79
2004-02-10 07:46:54 51°15.422 2°51.66 12 338 3.7 103210 79
2004-02-10 07:47:00 51°15.425 2°51.622 13.3 338 3.7 103220 79
2004-02-10 07:47:04 51°15.426 2°51.596 13.5 339 3.7 103220 79
2004-02-10 07:47:09 51°15.428 2°51.564 12.5 339 3.7 103210 79
2004-02-10 07:47:14 51°15.43 2°51.531 13.2 339 3.7 103210 79
2004-02-10 07:47:19 51°15.432 2°51.499 12.7 338 3.7 103220 79
2004-02-10 07:47:24 51°15.434 2°51.467 12.6 337 3.7 103220 79
2004-02-10 07:47:29 51°15.436 2°51.435 13.9 339 3.8 103220 79
2004-02-10 07:47:34 51°15.438 2°51.403 12.9 340 3.8 103220 79
2004-02-10 07:47:38 51°15.44 2°51.377 13 339 3.8 103220 80
2004-02-10 07:47:44 51°15.443 2°51.338 11.8 341 3.8 103220 80
2004-02-10 07:47:49 51°15.445 2°51.306 12.6 338 3.8 103220 79
2004-02-10 07:47:54 51°15.447 2°51.274 12.5 342 3.8 103220 79
2004-02-10 07:47:58 51°15.45 2°51.249 12.5 338 3.9 103220 79
2004-02-10 07:48:04 51°15.452 2°51.21 12.4 339 3.9 103220 79
2004-02-10 07:48:09 51°15.454 2°51.178 13.2 338 3.9 103230 79
2004-02-10 07:48:14 51°15.457 2°51.146 12.7 339 3.9 103230 79
2004-02-10 07:48:19 51°15.459 2°51.114 12.6 340 3.9 103220 79
2004-02-10 07:48:24 51°15.461 2°51.081 13.1 339 3.9 103220 79
2004-02-10 07:48:29 51°15.464 2°51.049 14.6 341 4 103210 79
2004-02-10 07:48:34 51°15.466 2°51.017 14.5 341 4 103210 79
2004-02-10 07:48:40 51°15.469 2°50.979 14.5 340 4 103220 80
2004-02-10 07:48:44 51°15.471 2°50.954 13.9 339 4 103220 80
2004-02-10 07:48:49 51°15.473 2°50.922 13.2 340 3.9 103220 80
2004-02-10 07:48:54 51°15.476 2°50.89 14.8 341 3.9 103220 80
2004-02-10 07:48:59 51°15.478 2°50.858 13.6 342 4.1 103220 79
2004-02-10 07:49:04 51°15.481 2°50.826 14 342 4.1 103220 79
2004-02-10 07:49:09 51°15.483 2°50.794 14.2 343 4.1 103210 79
2004-02-10 07:49:14 51°15.486 2°50.762 14 341 4.1 103210 79
2004-02-10 07:49:18 51°15.487 2°50.736 13.3 341 4.1 103210 79
2004-02-10 07:49:24 51°15.49 2°50.698 13.2 342 4.1 103210 79
2004-02-10 07:49:29 51°15.493 2°50.666 13.7 341 4.1 103220 78
2004-02-10 07:49:34 51°15.495 2°50.634 13.2 342 4.1 103220 78
2004-02-10 07:49:38 51°15.497 2°50.608 13.1 342 4.1 103210 78
2004-02-10 07:49:44 51°15.499 2°50.57 13.1 339 4.1 103210 78
2004-02-10 07:49:49 51°15.502 2°50.538 12.4 339 4.1 103220 77
2004-02-10 07:49:54 51°15.504 2°50.506 12.4 339 4.1 103220 77
2004-02-10 07:50:00 51°15.507 2°50.468 13 338 4.1 103220 77
2004-02-10 07:50:04 51°15.509 2°50.442 12.9 344 4.1 103220 77
2004-02-10 07:50:09 51°15.511 2°50.41 13 341 4.1 103210 77
2004-02-10 07:50:14 51°15.514 2°50.378 13.5 338 4.1 103210 77
2004-02-10 07:50:19 51°15.516 2°50.346 13.6 340 4.1 103220 77
2004-02-10 07:50:24 51°15.519 2°50.314 13.3 339 4.1 103220 77
2004-02-10 07:50:30 51°15.521 2°50.276 13.4 339 4.1 103220 77
2004-02-10 07:50:34 51°15.523 2°50.25 13.7 336 4.1 103220 77
2004-02-10 07:50:40 51°15.526 2°50.212 13.4 338 4.2 103220 77
2004-02-10 07:50:44 51°15.528 2°50.186 12.4 338 4.2 103220 77
2004-02-10 07:50:49 51°15.531 2°50.154 12.5 340 4.2 103220 77
2004-02-10 07:50:55 51°15.534 2°50.116 14.1 341 4.2 103220 77
2004-02-10 07:51:00 51°15.536 2°50.084 13.6 335 4.2 103220 77
2004-02-10 07:51:04 51°15.539 2°50.059 13.4 337 4.2 103220 77
2004-02-10 07:51:10 51°15.541 2°50.021 13.3 337 4.2 103220 77
2004-02-10 07:51:14 51°15.544 2°49.995 15 332 4.2 103220 77
2004-02-10 07:51:20 51°15.546 2°49.957 13.1 336 4.2 103210 77
2004-02-10 07:51:24 51°15.548 2°49.931 14.2 333 4.2 103210 77
2004-02-10 07:51:29 51°15.55 2°49.899 13.8 333 4.2 103210 77
2004-02-10 07:51:34 51°15.553 2°49.868 13.8 336 4.2 103210 77
2004-02-10 07:51:40 51°15.556 2°49.829 12.9 337 4.3 103210 77
2004-02-10 07:51:44 51°15.558 2°49.803 12.8 335 4.3 103210 77
2004-02-10 07:51:49 51°15.56 2°49.771 13 338 4.2 103200 77
2004-02-10 07:51:54 51°15.562 2°49.739 12.1 336 4.2 103200 77
2004-02-10 07:52:00 51°15.565 2°49.701 14 336 4.2 103220 76
2004-02-10 07:52:04 51°15.567 2°49.675 13.1 338 4.2 103220 76
2004-02-10 07:52:10 51°15.57 2°49.636 12.7 343 4.2 103220 76
2004-02-10 07:52:14 51°15.572 2°49.611 13.5 341 4.2 103220 76
2004-02-10 07:52:20 51°15.575 2°49.572 14.4 340 4.2 103220 77
2004-02-10 07:52:24 51°15.577 2°49.547 14.4 339 4.2 103220 77
2004-02-10 07:52:30 51°15.58 2°49.508 14.4 336 4.2 103220 77
2004-02-10 07:52:34 51°15.582 2°49.483 13.1 336 4.2 103220 77
2004-02-10 07:52:40 51°15.585 2°49.445 13.1 336 4.3 103220 77
2004-02-10 07:52:44 51°15.587 2°49.419 13.8 340 4.3 103220 77
2004-02-10 07:52:50 51°15.59 2°49.38 13.7 340 4.2 103220 77
2004-02-10 07:52:54 51°15.592 2°49.355 11.8 344 4.2 103220 77
2004-02-10 07:53:00 51°15.594 2°49.317 12.3 337 4.3 103220 77
2004-02-10 07:53:04 51°15.596 2°49.292 11.7 333 4.3 103220 77
2004-02-10 07:53:09 51°15.598 2°49.26 12.7 338 4.3 103230 77
2004-02-10 07:53:14 51°15.601 2°49.228 13.5 334 4.3 103230 77
2004-02-10 07:53:19 51°15.604 2°49.196 13.2 334 4.3 103220 77
2004-02-10 07:53:24 51°15.606 2°49.165 13.2 332 4.3 103220 77
2004-02-10 07:53:30 51°15.609 2°49.127 13.3 338 4.3 103220 77
2004-02-10 07:53:34 51°15.612 2°49.101 12.7 337 4.3 103220 77
2004-02-10 07:53:40 51°15.614 2°49.064 12.9 334 4.3 103220 77
2004-02-10 07:53:44 51°15.616 2°49.038 12.5 338 4.3 103220 77
2004-02-10 07:53:49 51°15.619 2°49.007 14.1 340 4.3 103210 77
2004-02-10 07:53:54 51°15.621 2°48.975 13.5 337 4.3 103210 77
2004-02-10 07:54:00 51°15.624 2°48.937 13.9 339 4.3 103210 77
2004-02-10 07:54:04 51°15.626 2°48.912 14 339 4.3 103210 77
2004-02-10 07:54:09 51°15.629 2°48.881 14.2 337 4.4 103220 78
2004-02-10 07:54:14 51°15.631 2°48.849 13.5 333 4.4 103220 78
2004-02-10 07:54:20 51°15.634 2°48.811 13.6 340 4.4 103220 78
2004-02-10 07:54:24 51°15.636 2°48.786 14.6 338 4.4 103220 78
2004-02-10 07:54:29 51°15.639 2°48.754 13.2 338 4.4 103210 77
2004-02-10 07:54:34 51°15.641 2°48.723 13.4 339 4.4 103210 77
2004-02-10 07:54:39 51°15.644 2°48.691 13.4 337 4.4 103220 77
2004-02-10 07:54:44 51°15.647 2°48.659 13.8 338 4.4 103220 77
2004-02-10 07:54:49 51°15.649 2°48.627 13.3 343 4.4 103220 77
2004-02-10 07:54:54 51°15.652 2°48.596 13.6 339 4.4 103220 77
2004-02-10 07:55:00 51°15.654 2°48.557 12.7 346 4.4 103210 77
2004-02-10 07:55:04 51°15.657 2°48.532 12.4 341 4.4 103210 77
2004-02-10 07:55:09 51°15.659 2°48.499 11.7 342 4.4 103210 77
2004-02-10 07:55:14 51°15.662 2°48.467 13 346 4.4 103210 77
2004-02-10 07:55:19 51°15.664 2°48.435 12.9 343 4.5 103210 77
2004-02-10 07:55:24 51°15.666 2°48.403 12.5 348 4.5 103210 77
2004-02-10 07:55:29 51°15.669 2°48.371 12.9 344 4.5 103220 77
2004-02-10 07:55:34 51°15.672 2°48.338 13.7 344 4.5 103220 77
2004-02-10 07:55:40 51°15.675 2°48.3 12.4 348 4.5 103230 77
2004-02-10 07:55:44 51°15.677 2°48.274 14 342 4.5 103230 77
2004-02-10 07:55:49 51°15.68 2°48.242 13.7 345 4.5 103220 78
2004-02-10 07:55:54 51°15.682 2°48.209 13.3 345 4.5 103220 78
2004-02-10 07:55:59 51°15.684 2°48.177 14.3 346 4.6 103210 78
2004-02-10 07:56:04 51°15.687 2°48.144 13.4 346 4.6 103210 78
2004-02-10 07:56:09 51°15.69 2°48.112 13.6 348 4.6 103220 78
2004-02-10 07:56:14 51°15.692 2°48.079 13.6 346 4.6 103220 78
2004-02-10 07:56:20 51°15.696 2°48.041 13.8 349 4.6 103210 78
2004-02-10 07:56:24 51°15.698 2°48.015 14.6 344 4.6 103210 78
2004-02-10 07:56:29 51°15.7 2°47.982 13.1 345 4.6 103220 77
2004-02-10 07:56:34 51°15.702 2°47.95 13.7 347 4.6 103220 77
2004-02-10 07:56:40 51°15.705 2°47.911 13.1 349 4.6 103210 77
2004-02-10 07:56:44 51°15.707 2°47.885 13.9 349 4.6 103210 77
2004-02-10 07:56:49 51°15.71 2°47.853 13.7 347 4.6 103210 77
2004-02-10 07:56:54 51°15.712 2°47.82 13 344 4.6 103210 77
2004-02-10 07:57:00 51°15.715 2°47.782 12.2 345 4.6 103220 77
2004-02-10 07:57:04 51°15.718 2°47.756 13.3 341 4.6 103220 77
2004-02-10 07:57:09 51°15.72 2°47.723 13.3 344 4.5 103220 76
2004-02-10 07:57:14 51°15.723 2°47.691 12.5 346 4.5 103220 76
2004-02-10 07:57:19 51°15.725 2°47.658 13.7 343 4.5 103220 76
2004-02-10 07:57:24 51°15.728 2°47.625 14.3 344 4.5 103220 76
2004-02-10 07:57:30 51°15.731 2°47.586 13.5 343 4.5 103210 76
2004-02-10 07:57:34 51°15.732 2°47.56 13.5 347 4.5 103210 76
2004-02-10 07:57:40 51°15.736 2°47.521 13.5 348 4.5 103220 76
2004-02-10 07:57:44 51°15.737 2°47.495 13.4 344 4.5 103220 76
2004-02-10 07:57:49 51°15.74 2°47.463 15.3 347 4.6 103220 77
2004-02-10 07:57:54 51°15.742 2°47.43 14.1 350 4.6 103220 77
2004-02-10 07:58:00 51°15.745 2°47.391 14 350 4.6 103210 76
2004-02-10 07:58:04 51°15.747 2°47.364 14 352 4.6 103210 76
2004-02-10 07:58:09 51°15.75 2°47.331 13.7 349 4.6 103220 77
2004-02-10 07:58:14 51°15.752 2°47.299 14.1 347 4.6 103220 77
2004-02-10 07:58:20 51°15.755 2°47.26 13.2 349 4.6 103210 76
2004-02-10 07:58:24 51°15.757 2°47.234 13.7 350 4.6 103210 76
2004-02-10 07:58:30 51°15.76 2°47.195 14.2 348 4.5 103210 74
2004-02-10 07:58:34 51°15.762 2°47.169 13.1 348 4.5 103210 74
2004-02-10 07:58:39 51°15.765 2°47.136 13.4 349 4.5 103210 74
2004-02-10 07:58:44 51°15.767 2°47.104 13.8 350 4.5 103210 74
2004-02-10 07:58:49 51°15.77 2°47.072 12.9 350 4.5 103220 73
2004-02-10 07:58:54 51°15.772 2°47.039 13.5 347 4.5 103220 73
2004-02-10 07:58:59 51°15.775 2°47.007 12.3 350 4.5 103220 72
2004-02-10 07:59:04 51°15.778 2°46.974 13.2 348 4.5 103220 72
2004-02-10 07:59:10 51°15.781 2°46.935 15.1 351 4.5 103220 71
2004-02-10 07:59:15 51°15.784 2°46.903 14.8 346 4.5 103220 71
2004-02-10 07:59:18 51°15.785 2°46.884 14.5 347 4.5 103220 71
2004-02-10 07:59:24 51°15.788 2°46.845 14.5 348 4.5 103220 71
2004-02-10 07:59:29 51°15.79 2°46.812 14.1 347 4.5 103220 71
2004-02-10 07:59:34 51°15.793 2°46.78 14.3 349 4.5 103220 71
2004-02-10 07:59:40 51°15.796 2°46.742 14.5 348 4.5 103220 70
2004-02-10 07:59:44 51°15.798 2°46.716 15.1 351 4.5 103220 70
2004-02-10 07:59:49 51°15.8 2°46.684 15.3 353 4.5 103210 69
2004-02-10 07:59:54 51°15.803 2°46.652 14.5 357 4.5 103210 69
2004-02-10 07:59:59 51°15.805 2°46.62 15 358 4.5 103210 68
2004-02-10 08:00:04 51°15.808 2°46.588 15 357 4.5 103210 68
2004-02-10 08:00:09 51°15.81 2°46.555 14.4 358 4.6 103210 68
2004-02-10 08:00:14 51°15.813 2°46.523 13.8 356 4.6 103210 68
2004-02-10 08:00:19 51°15.815 2°46.491 13.9 358 4.6 103220 68
2004-02-10 08:00:24 51°15.817 2°46.459 13.7 354 4.6 103220 68
2004-02-10 08:00:29 51°15.819 2°46.427 14.3 355 4.6 103220 68
2004-02-10 08:00:34 51°15.822 2°46.395 13.5 353 4.6 103220 68
2004-02-10 08:00:39 51°15.824 2°46.363 14.2 356 4.6 103220 66
2004-02-10 08:00:44 51°15.826 2°46.331 14 355 4.6 103220 66
2004-02-10 08:00:49 51°15.829 2°46.299 13.4 356 4.6 103230 66
2004-02-10 08:00:54 51°15.831 2°46.267 13.8 354 4.6 103230 66
2004-02-10 08:01:00 51°15.834 2°46.228 12.8 358 4.6 103230 66
2004-02-10 08:01:04 51°15.836 2°46.202 13.1 354 4.6 103230 66
2004-02-10 08:01:09 51°15.839 2°46.17 13.9 353 4.6 103220 65
2004-02-10 08:01:14 51°15.842 2°46.138 13.8 356 4.6 103220 65
2004-02-10 08:01:19 51°15.844 2°46.106 13.4 356 4.6 103230 66
2004-02-10 08:01:24 51°15.847 2°46.074 13.3 353 4.6 103230 66
2004-02-10 08:01:30 51°15.85 2°46.035 13 353 4.6 103230 66
2004-02-10 08:01:35 51°15.853 2°46.003 13.6 355 4.6 103230 66
2004-02-10 08:01:38 51°15.854 2°45.984 13.3 350 4.6 103230 66
2004-02-10 08:01:44 51°15.857 2°45.946 14.3 355 4.6 103230 66
2004-02-10 08:01:49 51°15.859 2°45.913 15.6 354 4.7 103230 66
2004-02-10 08:01:54 51°15.862 2°45.881 14.6 354 4.7 103230 66
2004-02-10 08:02:00 51°15.864 2°45.843 13.8 354 4.7 103230 67
2004-02-10 08:02:04 51°15.866 2°45.817 14.3 357 4.7 103230 67
2004-02-10 08:02:09 51°15.868 2°45.785 13.9 356 4.7 103220 67
2004-02-10 08:02:14 51°15.871 2°45.753 13.7 353 4.7 103220 67
2004-02-10 08:02:19 51°15.873 2°45.72 13.7 353 4.7 103220 66
2004-02-10 08:02:24 51°15.876 2°45.688 13.7 354 4.7 103220 66
2004-02-10 08:02:30 51°15.879 2°45.65 13.6 354 4.7 103230 66
2004-02-10 08:02:34 51°15.88 2°45.625 13.4 355 4.7 103230 66
2004-02-10 08:02:40 51°15.883 2°45.587 14.2 354 4.7 103230 65
2004-02-10 08:02:44 51°15.885 2°45.561 15.4 355 4.7 103230 65
2004-02-10 08:02:50 51°15.888 2°45.522 14.2 352 4.8 103220 65
2004-02-10 08:02:54 51°15.89 2°45.496 14.6 346 4.8 103220 65
2004-02-10 08:03:00 51°15.894 2°45.458 13.7 350 4.8 103230 65
2004-02-10 08:03:04 51°15.895 2°45.433 14 349 4.8 103230 65
2004-02-10 08:03:09 51°15.897 2°45.401 15 346 4.8 103230 65
2004-02-10 08:03:14 51°15.9 2°45.37 14.5 349 4.8 103230 65
2004-02-10 08:03:19 51°15.902 2°45.338 15.5 350 4.8 103230 66
2004-02-10 08:03:24 51°15.905 2°45.306 14.9 348 4.8 103230 66
2004-02-10 08:03:29 51°15.908 2°45.274 14.3 349 4.8 103230 66
2004-02-10 08:03:34 51°15.911 2°45.242 13.6 349 4.8 103230 66
2004-02-10 08:03:40 51°15.915 2°45.204 14.4 352 4.8 103210 65
2004-02-10 08:03:44 51°15.918 2°45.179 14.9 349 4.8 103210 65
2004-02-10 08:03:49 51°15.922 2°45.147 13.5 350 4.8 103220 65
2004-02-10 08:03:54 51°15.925 2°45.116 14.3 351 4.8 103220 65
2004-02-10 08:03:58 51°15.929 2°45.091 13.3 348 4.8 103220 65
2004-02-10 08:04:04 51°15.933 2°45.053 14.9 347 4.8 103220 65
2004-02-10 08:04:09 51°15.938 2°45.021 14.2 350 4.9 103230 65
2004-02-10 08:04:14 51°15.943 2°44.99 14.9 349 4.9 103230 65
2004-02-10 08:04:20 51°15.949 2°44.953 14.8 347 4.9 103220 66
2004-02-10 08:04:24 51°15.952 2°44.927 16.1 345 4.9 103220 66
2004-02-10 08:04:30 51°15.959 2°44.89 15.1 343 4.9 103230 66
2004-02-10 08:04:34 51°15.963 2°44.865 14.5 345 4.9 103230 66
2004-02-10 08:04:40 51°15.971 2°44.829 13.7 346 4.9 103250 66
2004-02-10 08:04:44 51°15.977 2°44.806 13.1 344 4.9 103250 66
2004-02-10 08:04:49 51°15.985 2°44.778 12.6 342 4.9 103270 66
2004-02-10 08:04:54 51°15.995 2°44.75 12.7 337 4.9 103270 66
2004-02-10 08:05:00 51°16.006 2°44.717 11.9 335 4.9 103250 65
2004-02-10 08:05:04 51°16.014 2°44.696 12.7 337 4.9 103250 65
2004-02-10 08:05:09 51°16.025 2°44.67 12.2 341 4.9 103270 65
2004-02-10 08:05:14 51°16.036 2°44.643 12.5 340 4.9 103270 65
2004-02-10 08:05:20 51°16.049 2°44.611 11.6 347 4.9 103270 66
2004-02-10 08:05:25 51°16.059 2°44.585 13.2 340 4.9 103270 66
2004-02-10 08:05:30 51°16.07 2°44.559 14.5 348 4.9 103270 66
2004-02-10 08:05:34 51°16.079 2°44.539 14.8 337 4.9 103270 66
2004-02-10 08:05:40 51°16.092 2°44.508 14.2 337 4.9 103270 67
2004-02-10 08:05:44 51°16.102 2°44.488 15.8 339 4.9 103270 67
2004-02-10 08:05:49 51°16.114 2°44.463 15 336 5 103270 67
2004-02-10 08:05:54 51°16.127 2°44.438 13.7 334 5 103270 67
2004-02-10 08:06:00 51°16.142 2°44.408 14.2 336 5 103260 66
2004-02-10 08:06:04 51°16.151 2°44.388 12.7 332 5 103260 66
2004-02-10 08:06:10 51°16.167 2°44.36 12.9 330 4.9 103260 65
2004-02-10 08:06:14 51°16.177 2°44.34 12.4 338 4.9 103260 65
2004-02-10 08:06:18 51°16.187 2°44.321 13 332 4.9 103260 64
2004-02-10 08:06:24 51°16.203 2°44.292 13.1 328 4.9 103260 64
2004-02-10 08:06:29 51°16.216 2°44.269 14 336 4.9 103260 64
2004-02-10 08:06:34 51°16.23 2°44.245 12.5 338 4.9 103260 64
2004-02-10 08:06:38 51°16.24 2°44.226 13.1 334 4.9 103260 65
2004-02-10 08:06:45 51°16.259 2°44.193 13.9 335 4.9 103260 65
2004-02-10 08:06:50 51°16.273 2°44.17 11.8 335 4.9 103260 65
2004-02-10 08:06:54 51°16.284 2°44.151 12.7 330 4.9 103260 65
2004-02-10 08:06:58 51°16.296 2°44.133 13.4 330 4.9 103260 65
2004-02-10 08:07:05 51°16.315 2°44.101 12.9 327 4.9 103260 65
2004-02-10 08:07:09 51°16.327 2°44.083 13.1 333 4.9 103260 65
2004-02-10 08:07:14 51°16.341 2°44.06 13.5 331 4.9 103260 65
2004-02-10 08:07:20 51°16.357 2°44.032 12.3 328 4.9 103270 66
2004-02-10 08:07:25 51°16.371 2°44.009 12.4 335 4.9 103270 66
2004-02-10 08:07:29 51°16.383 2°43.99 13.7 335 5 103260 66
2004-02-10 08:07:34 51°16.397 2°43.968 13.2 329 5 103260 66
2004-02-10 08:07:40 51°16.413 2°43.94 12.7 330 5 103260 66
2004-02-10 08:07:44 51°16.425 2°43.922 11.7 332 5 103260 66
2004-02-10 08:07:50 51°16.441 2°43.894 12.1 333 5 103260 65
2004-02-10 08:07:54 51°16.452 2°43.876 12.1 332 5 103260 65
2004-02-10 08:07:59 51°16.467 2°43.854 12.7 327 4.9 103260 64
2004-02-10 08:08:04 51°16.481 2°43.831 12.4 329 4.9 103260 64
2004-02-10 08:08:09 51°16.495 2°43.809 11.8 334 4.9 103260 64
2004-02-10 08:08:14 51°16.51 2°43.788 12.6 330 4.9 103260 64
2004-02-10 08:08:20 51°16.527 2°43.761 12.3 336 4.9 103250 64
2004-02-10 08:08:24 51°16.539 2°43.744 11.9 337 4.9 103250 64
2004-02-10 08:08:29 51°16.553 2°43.722 11.4 334 4.9 103260 64
2004-02-10 08:08:34 51°16.567 2°43.701 12.7 340 4.9 103260 64
2004-02-10 08:08:38 51°16.579 2°43.683 13.4 336 4.9 103260 65
2004-02-10 08:08:44 51°16.596 2°43.657 12.9 336 4.9 103260 65
2004-02-10 08:08:50 51°16.613 2°43.631 14.3 336 4.9 103260 65
2004-02-10 08:08:54 51°16.625 2°43.614 13.3 334 4.9 103260 65
2004-02-10 08:09:00 51°16.642 2°43.588 13.3 333 5 103260 65
2004-02-10 08:09:05 51°16.656 2°43.566 12.5 331 5 103260 65
2004-02-10 08:09:09 51°16.667 2°43.548 12.9 333 4.9 103250 64
2004-02-10 08:09:14 51°16.682 2°43.527 11.8 327 4.9 103250 64
2004-02-10 08:09:20 51°16.699 2°43.502 11.9 331 5 103250 64
2004-02-10 08:09:24 51°16.711 2°43.486 12 333 5 103250 64
2004-02-10 08:09:30 51°16.729 2°43.461 12.6 331 4.9 103250 63
2004-02-10 08:09:34 51°16.741 2°43.444 11.7 330 4.9 103250 63
2004-02-10 08:09:40 51°16.759 2°43.419 12.8 331 4.9 103260 63
2004-02-10 08:09:44 51°16.771 2°43.403 12.2 326 4.9 103260 63
2004-02-10 08:09:49 51°16.786 2°43.383 11.9 326 4.9 103260 63
2004-02-10 08:09:54 51°16.801 2°43.362 13.6 325 4.9 103260 63
2004-02-10 08:10:00 51°16.818 2°43.337 11.6 324 4.9 103250 64
2004-02-10 08:10:04 51°16.83 2°43.32 12.4 326 4.9 103250 64
2004-02-10 08:10:10 51°16.848 2°43.295 12.6 324 4.9 103250 64
2004-02-10 08:10:14 51°16.86 2°43.279 12.2 332 4.9 103250 64
2004-02-10 08:10:19 51°16.875 2°43.258 11 333 4.9 103260 64
2004-02-10 08:10:24 51°16.89 2°43.236 10.7 337 4.9 103260 64
2004-02-10 08:10:29 51°16.905 2°43.216 12.5 335 4.9 103250 65
2004-02-10 08:10:34 51°16.92 2°43.195 11.6 337 4.9 103250 65
2004-02-10 08:10:39 51°16.935 2°43.174 13.8 338 5 103250 65
2004-02-10 08:10:44 51°16.949 2°43.153 12.9 335 5 103250 65
2004-02-10 08:10:50 51°16.967 2°43.128 11.9 333 5 103260 66
2004-02-10 08:10:54 51°16.979 2°43.111 11.8 335 5 103260 66
2004-02-10 08:11:00 51°16.997 2°43.085 12 332 5 103260 65
2004-02-10 08:11:04 51°17.009 2°43.068 11.8 334 5 103260 65
2004-02-10 08:11:09 51°17.025 2°43.047 11.6 332 5 103250 64
2004-02-10 08:11:14 51°17.039 2°43.026 11.4 336 5 103250 64
2004-02-10 08:11:20 51°17.057 2°43 11.2 333 5 103260 63
2004-02-10 08:11:24 51°17.069 2°42.983 12.1 335 5 103260 63
2004-02-10 08:11:29 51°17.084 2°42.963 11.5 337 5 103260 63
2004-02-10 08:11:34 51°17.099 2°42.941 11.8 333 5 103260 63
2004-02-10 08:11:40 51°17.116 2°42.916 11.2 333 5 103260 63
2004-02-10 08:11:44 51°17.128 2°42.9 11.7 334 5 103260 63
2004-02-10 08:11:49 51°17.142 2°42.879 13.2 338 4.9 103250 64
2004-02-10 08:11:54 51°17.157 2°42.859 12.8 336 4.9 103250 64
2004-02-10 08:12:00 51°17.174 2°42.833 12 333 4.9 103250 64
2004-02-10 08:12:04 51°17.185 2°42.817 12.4 332 4.9 103250 64
2004-02-10 08:12:10 51°17.202 2°42.791 12 335 5 103250 64
2004-02-10 08:12:14 51°17.214 2°42.774 12 336 5 103250 64
2004-02-10 08:12:20 51°17.231 2°42.747 12.2 344 5 103250 63
2004-02-10 08:12:25 51°17.246 2°42.724 12 344 5 103250 63
2004-02-10 08:12:29 51°17.257 2°42.706 12.3 338 4.9 103240 63
2004-02-10 08:12:34 51°17.272 2°42.683 12.3 332 4.9 103240 63
2004-02-10 08:12:40 51°17.29 2°42.658 12.9 337 4.9 103250 63
2004-02-10 08:12:44 51°17.303 2°42.642 13.6 333 4.9 103250 63
2004-02-10 08:12:50 51°17.322 2°42.619 12.2 337 4.9 103250 64
2004-02-10 08:12:54 51°17.335 2°42.603 12.9 335 4.9 103250 64
2004-02-10 08:13:00 51°17.356 2°42.581 12.1 329 5 103250 64
2004-02-10 08:13:04 51°17.37 2°42.565 13.7 333 5 103250 64
2004-02-10 08:13:10 51°17.391 2°42.542 12.6 335 5 103240 63
2004-02-10 08:13:14 51°17.405 2°42.526 13.2 331 5 103240 63
2004-02-10 08:13:20 51°17.425 2°42.503 12.7 326 4.9 103250 64
2004-02-10 08:13:24 51°17.439 2°42.488 12.1 327 4.9 103250 64
2004-02-10 08:13:29 51°17.456 2°42.469 11.5 324 5 103250 64
2004-02-10 08:13:34 51°17.473 2°42.451 13.8 323 5 103250 64
2004-02-10 08:13:40 51°17.493 2°42.428 13.2 323 5 103240 64
2004-02-10 08:13:44 51°17.506 2°42.414 12.4 319 5 103240 64
2004-02-10 08:13:49 51°17.523 2°42.395 12.2 326 5 103240 64
2004-02-10 08:13:54 51°17.539 2°42.377 12.6 326 5 103240 64
2004-02-10 08:14:00 51°17.559 2°42.354 12.5 323 5 103240 64
2004-02-10 08:14:04 51°17.572 2°42.339 11 323 5 103240 64
2004-02-10 08:14:09 51°17.588 2°42.321 13.1 328 5 103240 64
2004-02-10 08:14:14 51°17.604 2°42.303 12.5 325 5 103240 64
2004-02-10 08:14:19 51°17.62 2°42.285 12.7 328 5 103250 64
2004-02-10 08:14:24 51°17.636 2°42.266 12.5 333 5 103250 64
2004-02-10 08:14:29 51°17.652 2°42.248 12.5 326 5 103240 64
2004-02-10 08:14:34 51°17.668 2°42.229 12.7 329 5 103240 64
2004-02-10 08:14:39 51°17.684 2°42.211 13.3 329 5 103240 65
2004-02-10 08:14:44 51°17.7 2°42.192 12.5 331 5 103240 65
2004-02-10 08:14:49 51°17.716 2°42.174 11.9 331 5 103250 65
2004-02-10 08:14:54 51°17.732 2°42.155 12.8 331 5 103250 65
2004-02-10 08:14:59 51°17.748 2°42.137 12.4 327 5 103240 64
2004-02-10 08:15:04 51°17.763 2°42.119 12.3 325 5 103240 64
2004-02-10 08:15:09 51°17.78 2°42.103 11.7 329 5 103240 65
2004-02-10 08:15:14 51°17.797 2°42.088 12.6 326 5 103240 65
2004-02-10 08:15:20 51°17.817 2°42.071 11.7 328 5 103250 64
2004-02-10 08:15:24 51°17.831 2°42.06 11.5 325 5 103250 64
2004-02-10 08:15:29 51°17.849 2°42.047 11.9 326 5 103250 64
2004-02-10 08:15:34 51°17.867 2°42.035 12.2 320 5 103250 64
2004-02-10 08:15:40 51°17.888 2°42.022 12.1 319 5 103250 64
2004-02-10 08:15:44 51°17.902 2°42.013 10.9 322 5 103250 64
2004-02-10 08:15:49 51°17.92 2°42.003 10.8 320 5 103250 63
2004-02-10 08:15:55 51°17.942 2°41.992 11.8 320 5 103250 63
2004-02-10 08:16:00 51°17.96 2°41.983 11.2 320 5 103250 63
2004-02-10 08:16:04 51°17.975 2°41.975 11.3 322 5 103250 63
2004-02-10 08:16:10 51°17.997 2°41.965 10.9 320 5 103260 63
2004-02-10 08:16:14 51°18.012 2°41.958 9.9 321 5 103260 63
2004-02-10 08:16:20 51°18.033 2°41.947 11 320 5 103250 63
2004-02-10 08:16:24 51°18.048 2°41.939 10.8 321 5 103250 63
2004-02-10 08:16:30 51°18.069 2°41.928 10.2 318 5 103250 63
2004-02-10 08:16:34 51°18.084 2°41.92 10.5 317 5 103250 63
2004-02-10 08:16:40 51°18.106 2°41.909 10.3 325 5 103250 63
2004-02-10 08:16:44 51°18.12 2°41.901 10.3 322 5 103250 63
2004-02-10 08:16:49 51°18.139 2°41.892 10.8 319 5 103250 63
2004-02-10 08:16:55 51°18.161 2°41.88 10.9 327 5 103250 63
2004-02-10 08:17:00 51°18.179 2°41.871 10.6 322 5 103250 63
2004-02-10 08:17:04 51°18.193 2°41.863 10.6 318 5 103250 63
2004-02-10 08:17:10 51°18.215 2°41.852 10 316 5 103250 64
2004-02-10 08:17:14 51°18.23 2°41.844 10.5 318 5 103250 64
2004-02-10 08:17:20 51°18.252 2°41.832 11 317 5 103250 64
2004-02-10 08:17:24 51°18.267 2°41.824 10.1 319 5 103250 64
2004-02-10 08:17:30 51°18.288 2°41.812 10.3 317 5 103240 64
2004-02-10 08:17:34 51°18.303 2°41.805 9.5 312 5 103240 64
2004-02-10 08:17:40 51°18.325 2°41.793 9.5 314 5 103250 64
2004-02-10 08:17:45 51°18.344 2°41.783 9.7 316 5 103250 64
2004-02-10 08:17:49 51°18.358 2°41.775 9.5 318 5 103250 64
2004-02-10 08:17:54 51°18.377 2°41.764 9.5 319 5 103250 64
2004-02-10 08:18:00 51°18.399 2°41.752 9.9 319 5 103240 64
2004-02-10 08:18:04 51°18.413 2°41.745 11 317 5 103240 64
2004-02-10 08:18:10 51°18.436 2°41.733 10.6 43 5 103260 64
2004-02-10 08:18:14 51°18.45 2°41.724 11.3 320 5 103260 64
2004-02-10 08:18:20 51°18.473 2°41.712 10.4 319 5 103250 65
2004-02-10 08:18:24 51°18.487 2°41.704 11.1 316 5 103250 65
2004-02-10 08:18:29 51°18.506 2°41.693 11.1 321 5.1 103240 65
2004-02-10 08:18:35 51°18.528 2°41.68 11 321 5.1 103240 65
2004-02-10 08:18:40 51°18.546 2°41.67 10.6 321 5.1 103250 65
2004-02-10 08:18:44 51°18.561 2°41.662 10.6 322 5.1 103250 65
2004-02-10 08:18:50 51°18.583 2°41.65 10.8 319 5.1 103250 65
2004-02-10 08:18:54 51°18.598 2°41.642 10.6 321 5.1 103250 65
2004-02-10 08:19:00 51°18.62 2°41.629 10.7 320 5.1 103250 63
2004-02-10 08:19:04 51°18.634 2°41.619 10.6 318 5.1 103250 63
2004-02-10 08:19:09 51°18.652 2°41.609 10.3 317 5 103240 63
2004-02-10 08:19:14 51°18.671 2°41.599 9.5 314 5 103240 63
2004-02-10 08:19:20 51°18.693 2°41.591 9.4 314 5.1 103240 63
2004-02-10 08:19:24 51°18.708 2°41.586 9.4 230 5.1 103240 63
2004-02-10 08:19:29 51°18.727 2°41.581 8.3 40 5.1 103250 63
2004-02-10 08:19:34 51°18.746 2°41.576 9.1 229 5.1 103250 63
2004-02-10 08:19:40 51°18.768 2°41.572 9 35 5.1 103250 63
2004-02-10 08:19:44 51°18.784 2°41.569 9.2 227 5.1 103250 63
2004-02-10 08:19:50 51°18.807 2°41.566 8.5 311 5.1 103260 63
2004-02-10 08:19:54 51°18.822 2°41.563 8.2 311 5.1 103260 63
2004-02-10 08:20:00 51°18.844 2°41.56 9.1 313 5.1 103250 64
2004-02-10 08:20:04 51°18.859 2°41.558 8.9 41 5.1 103250 64
2004-02-10 08:20:09 51°18.878 2°41.555 8.5 228 5.1 103250 64
2004-02-10 08:20:14 51°18.897 2°41.551 8.6 43 5.1 103250 64
2004-02-10 08:20:20 51°18.92 2°41.548 9.1 315 5.1 103260 63
2004-02-10 08:20:24 51°18.935 2°41.546 8.8 312 5.1 103260 63
2004-02-10 08:20:29 51°18.954 2°41.543 8.6 313 5.1 103250 64
2004-02-10 08:20:35 51°18.977 2°41.54 8.3 308 5.1 103250 64
2004-02-10 08:20:40 51°18.996 2°41.538 8.8 311 5.1 103250 64
2004-02-10 08:20:44 51°19.012 2°41.536 8 321 5.1 103250 64
2004-02-10 08:20:50 51°19.034 2°41.533 8.5 313 5.1 103250 63
2004-02-10 08:20:54 51°19.05 2°41.532 8.5 310 5.1 103250 63
2004-02-10 08:21:00 51°19.071 2°41.531 7.7 305 5.1 103250 63
2004-02-10 08:21:04 51°19.084 2°41.53 8.6 300 5.1 103250 63
2004-02-10 08:21:10 51°19.103 2°41.529 8.4 297 5.1 103250 64
2004-02-10 08:21:14 51°19.114 2°41.529 8.2 293 5.1 103250 64
2004-02-10 08:21:20 51°19.129 2°41.529 7.4 285 5.1 103250 64
2004-02-10 08:21:24 51°19.139 2°41.529 7.5 279 5.1 103250 64
2004-02-10 08:21:29 51°19.15 2°41.53 7.6 277 5.1 103260 64
2004-02-10 08:21:35 51°19.161 2°41.531 7.4 271 5.1 103260 64
2004-02-10 08:21:40 51°19.17 2°41.533 8.4 266 5.1 103270 64
2004-02-10 08:21:44 51°19.176 2°41.534 6.6 261 5.1 103270 64
2004-02-10 08:21:50 51°19.183 2°41.535 5 255 5.1 103270 64
2004-02-10 08:21:54 51°19.187 2°41.536 4.5 254 5.1 103270 64
2004-02-10 08:22:00 51°19.192 2°41.536 5.5 255 5.1 103270 64
2004-02-10 08:22:04 51°19.194 2°41.536 5.8 248 5.1 103270 64
2004-02-10 08:22:09 51°19.197 2°41.536 5.6 250 5.1 103270 63
2004-02-10 08:22:14 51°19.198 2°41.536 6.1 247 5.1 103270 63
2004-02-10 08:22:18 51°19.199 2°41.535 7.5 241 5.2 103260 64
2004-02-10 08:22:25 51°19.199 2°41.534 7 243 5.2 103260 64
2004-02-10 08:22:29 51°19.199 2°41.533 7 240 5.2 103260 64
2004-02-10 08:22:34 51°19.2 2°41.532 7.4 237 5.2 103260 64
2004-02-10 08:22:40 51°19.2 2°41.531 6.6 238 5.2 103260 64
2004-02-10 08:22:44 51°19.2 2°41.53 6.6 239 5.2 103260 64
2004-02-10 08:22:49 51°19.201 2°41.53 7.1 237 5.1 103260 62
2004-02-10 08:22:54 51°19.201 2°41.529 7.4 239 5.1 103260 62
2004-02-10 08:23:00 51°19.201 2°41.528 7.4 242 5.1 103260 61
2004-02-10 08:23:04 51°19.202 2°41.527 6.7 238 5.1 103260 61
2004-02-10 08:23:09 51°19.202 2°41.527 7.6 241 5.1 103260 61
2004-02-10 08:23:14 51°19.203 2°41.526 6 244 5.1 103260 61
2004-02-10 08:23:18 51°19.203 2°41.526 6.3 248 5.1 103260 61
2004-02-10 08:23:24 51°19.203 2°41.525 6.7 242 5.1 103260 61
2004-02-10 08:23:29 51°19.204 2°41.525 6.9 245 5.1 103260 61
2004-02-10 08:23:34 51°19.205 2°41.524 6.6 238 5.1 103260 61
2004-02-10 08:23:40 51°19.205 2°41.523 6.4 238 5.1 103260 61
2004-02-10 08:23:44 51°19.205 2°41.523 6.9 238 5.1 103260 61
2004-02-10 08:23:49 51°19.206 2°41.523 6.6 244 5.1 103270 62
2004-02-10 08:23:54 51°19.206 2°41.522 5.4 245 5.1 103270 62
2004-02-10 08:23:58 51°19.206 2°41.522 6.2 246 5.1 103260 62
2004-02-10 08:24:04 51°19.207 2°41.52 4.9 249 5.1 103260 62
2004-02-10 08:24:09 51°19.208 2°41.52 5.1 249 5.1 103260 61
2004-02-10 08:24:14 51°19.208 2°41.519 5.3 246 5.1 103260 61
2004-02-10 08:24:18 51°19.209 2°41.519 5.8 243 5.1 103270 60
2004-02-10 08:24:24 51°19.209 2°41.518 5.7 248 5.1 103270 60
2004-02-10 08:24:30 51°19.21 2°41.517 5.8 248 5.1 103260 61
2004-02-10 08:24:34 51°19.21 2°41.516 5.5 247 5.1 103260 61
2004-02-10 08:24:40 51°19.211 2°41.515 5.1 247 5.1 103260 61
2004-02-10 08:24:44 51°19.212 2°41.514 6.3 237 5.1 103260 61
2004-02-10 08:24:49 51°19.212 2°41.514 6.3 241 5.1 103260 61
2004-02-10 08:24:54 51°19.212 2°41.513 6.2 248 5.1 103260 61
2004-02-10 08:24:58 51°19.213 2°41.512 6.5 245 5.1 103260 61
2004-02-10 08:25:04 51°19.214 2°41.511 6.2 248 5.1 103260 61
2004-02-10 08:25:10 51°19.214 2°41.509 6 248 5.1 103260 63
2004-02-10 08:25:14 51°19.215 2°41.509 5.3 251 5.1 103260 63
2004-02-10 08:25:20 51°19.215 2°41.507 5.6 257 5.1 103260 62
2004-02-10 08:25:24 51°19.215 2°41.507 5.4 255 5.1 103260 62
2004-02-10 08:25:29 51°19.216 2°41.505 4.7 253 5.1 103260 63
2004-02-10 08:25:34 51°19.217 2°41.504 6.3 256 5.1 103260 63
2004-02-10 08:25:38 51°19.217 2°41.503 6.2 258 5.1 103260 63
2004-02-10 08:25:44 51°19.218 2°41.502 4.9 252 5.1 103260 63
2004-02-10 08:25:50 51°19.218 2°41.5 4.9 248 5.2 103260 64
2004-02-10 08:25:54 51°19.219 2°41.5 4.5 254 5.2 103260 64
2004-02-10 08:26:00 51°19.22 2°41.498 4.5 250 5.1 103260 62
2004-02-10 08:26:04 51°19.22 2°41.497 5.2 253 5.1 103260 62
2004-02-10 08:26:09 51°19.22 2°41.496 4.4 255 5.1 103260 62
2004-02-10 08:26:14 51°19.221 2°41.495 4.3 256 5.1 103260 62
2004-02-10 08:26:18 51°19.221 2°41.494 4.9 248 5.1 103260 62
2004-02-10 08:26:24 51°19.222 2°41.492 6.9 263 5.1 103260 62
2004-02-10 08:26:29 51°19.222 2°41.491 7 263 5.1 103260 63
2004-02-10 08:26:34 51°19.223 2°41.49 5.8 260 5.1 103260 63
2004-02-10 08:26:38 51°19.223 2°41.489 4.2 256 5.1 103260 62
2004-02-10 08:26:45 51°19.224 2°41.487 7.6 265 5.1 103260 62
2004-02-10 08:26:49 51°19.224 2°41.486 6.9 262 5.1 103260 63
2004-02-10 08:26:54 51°19.224 2°41.485 6.7 262 5.1 103260 63
2004-02-10 08:27:00 51°19.225 2°41.484 5.8 261 5.2 103260 64
2004-02-10 08:27:04 51°19.225 2°41.483 6.1 261 5.2 103260 64
2004-02-10 08:27:09 51°19.225 2°41.482 4.9 255 5.2 103260 65
2004-02-10 08:27:14 51°19.226 2°41.48 4.4 255 5.2 103260 65
2004-02-10 08:27:20 51°19.226 2°41.479 6.3 258 5.2 103260 64
2004-02-10 08:27:24 51°19.226 2°41.478 7.7 265 5.2 103260 64
2004-02-10 08:27:30 51°19.227 2°41.477 7 260 5.2 103260 64
2004-02-10 08:27:34 51°19.227 2°41.476 7.5 260 5.2 103260 64
2004-02-10 08:27:38 51°19.227 2°41.475 8.3 261 5.2 103260 65
2004-02-10 08:27:44 51°19.228 2°41.474 5.6 255 5.2 103260 65
2004-02-10 08:27:49 51°19.228 2°41.473 4.7 255 5.2 103260 63
2004-02-10 08:27:54 51°19.228 2°41.472 5.3 256 5.2 103260 63
2004-02-10 08:28:00 51°19.229 2°41.471 6.2 257 5.2 103260 63
2004-02-10 08:28:04 51°19.229 2°41.469 5.9 256 5.2 103260 63
2004-02-10 08:28:09 51°19.23 2°41.469 5.6 257 5.2 103260 63
2004-02-10 08:28:14 51°19.231 2°41.467 4.6 254 5.2 103260 63
2004-02-10 08:28:18 51°19.233 2°41.466 4.8 257 5.2 103260 64
2004-02-10 08:28:24 51°19.236 2°41.465 5.2 249 5.2 103260 64
2004-02-10 08:28:29 51°19.239 2°41.465 6.7 239 5.2 103280 64
2004-02-10 08:28:34 51°19.243 2°41.465 5.5 234 5.2 103280 64
2004-02-10 08:28:40 51°19.247 2°41.467 5.4 233 5.2 103260 62
2004-02-10 08:28:45 51°19.252 2°41.469 4.3 227 5.2 103260 62
2004-02-10 08:28:50 51°19.255 2°41.474 4.7 235 5.2 103260 61
2004-02-10 08:28:54 51°19.258 2°41.477 4 215 5.2 103260 61
2004-02-10 08:29:00 51°19.262 2°41.484 3.9 196 5.1 103270 61
2004-02-10 08:29:04 51°19.264 2°41.49 2.3 188 5.1 103270 61
2004-02-10 08:29:09 51°19.266 2°41.497 3.7 161 5.1 103270 62
2004-02-10 08:29:14 51°19.266 2°41.506 4.3 153 5.1 103270 62
2004-02-10 08:29:20 51°19.266 2°41.516 5 139 5.2 103270 63
2004-02-10 08:29:24 51°19.265 2°41.523 5.3 133 5.2 103270 63
2004-02-10 08:29:30 51°19.262 2°41.533 4.9 127 5.2 103260 63
2004-02-10 08:29:34 51°19.26 2°41.539 5.8 116 5.2 103260 63
2004-02-10 08:29:40 51°19.255 2°41.549 5.7 111 5.2 103270 63
2004-02-10 08:29:45 51°19.25 2°41.555 6.9 98 5.2 103270 63
2004-02-10 08:29:50 51°19.244 2°41.561 8.4 83 5.2 103260 61
2004-02-10 08:29:54 51°19.239 2°41.564 8.5 81 5.2 103260 61
2004-02-10 08:29:59 51°19.232 2°41.567 6.4 75 5.2 103260 62
2004-02-10 08:30:04 51°19.225 2°41.569 8.9 67 5.2 103260 62
2004-02-10 08:30:09 51°19.218 2°41.57 8.6 59 5.2 103260 62
2004-02-10 08:30:14 51°19.21 2°41.568 9 50 5.2 103260 62
2004-02-10 08:30:19 51°19.202 2°41.565 9 44 5.2 103260 62
2004-02-10 08:30:24 51°19.194 2°41.561 10.4 36 5.2 103260 62
2004-02-10 08:30:30 51°19.185 2°41.553 10.2 29 5.2 103260 61
2004-02-10 08:30:34 51°19.179 2°41.547 9.8 33 5.2 103260 61
2004-02-10 08:30:40 51°19.17 2°41.535 10 23 5.2 103260 62
2004-02-10 08:30:44 51°19.164 2°41.525 10.8 17 5.2 103260 62
2004-02-10 08:30:50 51°19.157 2°41.508 10.2 11 5.2 103250 62
2004-02-10 08:30:54 51°19.152 2°41.496 10.7 5 5.2 103250 62
2004-02-10 08:31:00 51°19.147 2°41.476 10.9 2 5.2 103260 61
2004-02-10 08:31:05 51°19.144 2°41.459 11.8 352 5.2 103260 61
2004-02-10 08:31:09 51°19.142 2°41.444 11.1 355 5.2 103260 62
2004-02-10 08:31:14 51°19.141 2°41.424 11.2 345 5.2 103260 62
2004-02-10 08:31:18 51°19.14 2°41.409 10.2 345 5.2 103270 60
2004-02-10 08:31:24 51°19.14 2°41.385 11.1 346 5.2 103270 60
2004-02-10 08:31:29 51°19.141 2°41.364 11.2 338 5.2 103270 61
2004-02-10 08:31:34 51°19.143 2°41.343 13 336 5.2 103270 61
2004-02-10 08:31:40 51°19.145 2°41.317 12.4 338 5.2 103250 62
2004-02-10 08:31:44 51°19.148 2°41.3 12.4 336 5.2 103250 62
2004-02-10 08:31:49 51°19.151 2°41.277 12 336 5.2 103250 62
2004-02-10 08:31:54 51°19.156 2°41.255 12.9 332 5.2 103250 62
2004-02-10 08:32:00 51°19.161 2°41.228 12.1 337 5.2 103250 63
2004-02-10 08:32:04 51°19.165 2°41.209 12.8 341 5.2 103250 63
2004-02-10 08:32:09 51°19.169 2°41.185 12.6 337 5.2 103240 62
2004-02-10 08:32:14 51°19.172 2°41.16 12.4 341 5.2 103240 62
2004-02-10 08:32:19 51°19.176 2°41.135 12.5 342 5.2 103240 60
2004-02-10 08:32:24 51°19.179 2°41.109 12.8 345 5.2 103240 60
2004-02-10 08:32:29 51°19.182 2°41.083 11.9 349 5.2 103250 61
2004-02-10 08:32:34 51°19.186 2°41.056 13 345 5.2 103250 61
2004-02-10 08:32:40 51°19.191 2°41.024 12.6 344 5.2 103230 62
2004-02-10 08:32:44 51°19.194 2°41.002 12.4 348 5.2 103230 62
2004-02-10 08:32:49 51°19.198 2°40.976 12.4 341 5.2 103240 64
2004-02-10 08:32:54 51°19.202 2°40.949 12.2 344 5.2 103240 64
2004-02-10 08:32:58 51°19.205 2°40.929 11.7 338 5.2 103250 62
2004-02-10 08:33:04 51°19.209 2°40.899 12.2 345 5.2 103250 62
2004-02-10 08:33:10 51°19.214 2°40.871 11.2 333 5.2 103260 63
2004-02-10 08:33:14 51°19.217 2°40.853 11 333 5.2 103260 63
2004-02-10 08:33:20 51°19.222 2°40.828 10.7 331 5.3 103250 62
2004-02-10 08:33:24 51°19.225 2°40.812 9.8 328 5.3 103250 62
2004-02-10 08:33:29 51°19.229 2°40.793 9.6 329 5.2 103250 63
2004-02-10 08:33:34 51°19.233 2°40.775 10.1 325 5.2 103250 63
2004-02-10 08:33:40 51°19.237 2°40.755 10.1 329 5.2 103250 62
2004-02-10 08:33:44 51°19.24 2°40.742 10.1 321 5.2 103250 62
2004-02-10 08:33:50 51°19.245 2°40.724 9.2 317 5.3 103240 62
2004-02-10 08:33:54 51°19.248 2°40.712 9.6 226 5.3 103240 62
2004-02-10 08:33:59 51°19.253 2°40.699 8.9 310 5.2 103250 62
2004-02-10 08:34:04 51°19.258 2°40.687 9 304 5.2 103250 62
2004-02-10 08:34:09 51°19.263 2°40.677 10.3 307 5.2 103250 62
2004-02-10 08:34:14 51°19.268 2°40.667 10.2 299 5.2 103250 62
2004-02-10 08:34:19 51°19.273 2°40.659 8.7 300 5.2 103260 61
2004-02-10 08:34:24 51°19.278 2°40.651 9.3 295 5.2 103260 61
2004-02-10 08:34:29 51°19.284 2°40.645 8.8 298 5.2 103270 62
2004-02-10 08:34:34 51°19.289 2°40.638 8.4 294 5.2 103270 62
2004-02-10 08:34:40 51°19.294 2°40.632 8 298 5.3 103270 63
2004-02-10 08:34:44 51°19.297 2°40.628 7.6 285 5.3 103270 63
2004-02-10 08:34:49 51°19.3 2°40.625 7.8 276 5.3 103270 63
2004-02-10 08:34:54 51°19.302 2°40.621 6.7 278 5.3 103270 63
2004-02-10 08:34:58 51°19.304 2°40.62 8.1 267 5.3 103270 64
2004-02-10 08:35:04 51°19.306 2°40.616 6.2 258 5.3 103270 64
2004-02-10 08:35:10 51°19.308 2°40.614 5.5 256 5.3 103260 64
2004-02-10 08:35:14 51°19.309 2°40.612 5.6 249 5.3 103260 64
2004-02-10 08:35:19 51°19.309 2°40.611 5.3 250 5.3 103260 64
2004-02-10 08:35:24 51°19.311 2°40.608 5.7 249 5.3 103260 64
2004-02-10 08:35:29 51°19.312 2°40.607 5.7 249 5.3 103270 63
2004-02-10 08:35:34 51°19.313 2°40.605 6.3 246 5.3 103270 63
2004-02-10 08:35:38 51°19.314 2°40.605 6.1 237 5.3 103270 62
2004-02-10 08:35:44 51°19.315 2°40.604 5.8 235 5.3 103270 62
2004-02-10 08:35:49 51°19.317 2°40.603 6 234 5.3 103270 62
2004-02-10 08:35:54 51°19.318 2°40.602 6.2 233 5.3 103270 62
2004-02-10 08:35:59 51°19.319 2°40.602 5.8 227 5.3 103270 63
2004-02-10 08:36:04 51°19.32 2°40.602 5.2 226 5.3 103270 63
2004-02-10 08:36:09 51°19.321 2°40.602 7.4 226 5.3 103270 64
2004-02-10 08:36:14 51°19.322 2°40.601 7 224 5.3 103270 64
2004-02-10 08:36:20 51°19.324 2°40.601 7.1 226 5.4 103270 66
2004-02-10 08:36:24 51°19.325 2°40.601 6.5 222 5.4 103270 66
2004-02-10 08:36:30 51°19.326 2°40.602 6.3 229 5.4 103270 65
2004-02-10 08:36:34 51°19.327 2°40.602 6.4 232 5.4 103270 65
2004-02-10 08:36:40 51°19.329 2°40.602 5.8 231 5.3 103270 63
2004-02-10 08:36:44 51°19.33 2°40.603 5.7 235 5.3 103270 63
2004-02-10 08:36:49 51°19.332 2°40.603 6.1 236 5.3 103270 60
2004-02-10 08:36:54 51°19.333 2°40.604 6.5 227 5.3 103270 60
2004-02-10 08:36:58 51°19.335 2°40.605 6 232 5.3 103270 60
2004-02-10 08:37:04 51°19.337 2°40.606 6.8 229 5.3 103270 60
2004-02-10 08:37:09 51°19.338 2°40.607 6.7 228 5.3 103270 61
2004-02-10 08:37:14 51°19.34 2°40.607 6.3 225 5.3 103270 61
2004-02-10 08:37:18 51°19.341 2°40.609 6.7 225 5.3 103270 61
2004-02-10 08:37:25 51°19.344 2°40.61 6.7 221 5.3 103270 61
2004-02-10 08:37:29 51°19.345 2°40.611 6.5 215 5.3 103270 61
2004-02-10 08:37:34 51°19.346 2°40.612 6.3 218 5.3 103270 61
2004-02-10 08:37:38 51°19.347 2°40.613 5.8 217 5.2 103270 60
2004-02-10 08:37:44 51°19.349 2°40.615 5.4 199 5.2 103270 60
2004-02-10 08:37:49 51°19.35 2°40.617 6.2 206 5.3 103280 60
2004-02-10 08:37:54 51°19.351 2°40.619 5.8 205 5.3 103280 60
2004-02-10 08:38:00 51°19.353 2°40.621 4.4 198 5.3 103280 61
2004-02-10 08:38:05 51°19.353 2°40.623 4.7 198 5.3 103280 61
2004-02-10 08:38:09 51°19.354 2°40.625 3.6 189 5.3 103270 62
2004-02-10 08:38:14 51°19.354 2°40.627 3.2 196 5.3 103270 62
2004-02-10 08:38:18 51°19.355 2°40.629 4 184 5.2 103280 60
2004-02-10 08:38:24 51°19.355 2°40.631 4.4 182 5.2 103280 60
2004-02-10 08:38:29 51°19.355 2°40.633 4.6 178 5.2 103270 60
2004-02-10 08:38:34 51°19.355 2°40.636 5 175 5.2 103270 60
2004-02-10 08:38:40 51°19.355 2°40.638 3.9 178 5.3 103280 61
2004-02-10 08:38:44 51°19.355 2°40.64 4.9 170 5.3 103280 61
2004-02-10 08:38:49 51°19.355 2°40.643 5.3 165 5.3 103270 62
2004-02-10 08:38:54 51°19.355 2°40.645 5.5 164 5.3 103270 62
2004-02-10 08:39:00 51°19.355 2°40.648 5.3 156 5.4 103270 63
2004-02-10 08:39:04 51°19.355 2°40.65 5.7 168 5.4 103270 63
2004-02-10 08:39:10 51°19.354 2°40.653 5.5 161 5.4 103270 63
2004-02-10 08:39:14 51°19.354 2°40.655 5.8 153 5.4 103270 63
2004-02-10 08:39:20 51°19.354 2°40.658 6.5 156 5.4 103280 63
2004-02-10 08:39:24 51°19.354 2°40.66 6.1 154 5.4 103280 63
2004-02-10 08:39:29 51°19.353 2°40.663 5.9 154 5.4 103280 64
2004-02-10 08:39:34 51°19.353 2°40.666 6.2 146 5.4 103280 64
2004-02-10 08:39:40 51°19.353 2°40.669 5.3 150 5.4 103260 63
2004-02-10 08:39:44 51°19.353 2°40.671 5.4 144 5.4 103260 63
2004-02-10 08:39:49 51°19.352 2°40.673 5.4 151 5.4 103270 61
2004-02-10 08:39:54 51°19.352 2°40.676 5.9 145 5.4 103270 61
2004-02-10 08:39:59 51°19.351 2°40.678 5.5 142 5.3 103280 60
2004-02-10 08:40:04 51°19.351 2°40.68 5.3 144 5.3 103280 60
2004-02-10 08:40:10 51°19.35 2°40.683 4.8 138 5.3 103260 61
2004-02-10 08:40:14 51°19.35 2°40.684 5.9 137 5.3 103260 61
2004-02-10 08:40:20 51°19.348 2°40.687 6.5 133 5.4 103270 61
2004-02-10 08:40:24 51°19.348 2°40.688 7.1 134 5.4 103270 61
2004-02-10 08:40:29 51°19.347 2°40.69 6.9 139 5.3 103260 61
2004-02-10 08:40:34 51°19.346 2°40.692 7.2 136 5.3 103260 61
2004-02-10 08:40:38 51°19.345 2°40.693 7.1 136 5.4 103260 63
2004-02-10 08:40:45 51°19.344 2°40.696 6.7 136 5.4 103260 63
2004-02-10 08:40:50 51°19.342 2°40.697 7 130 5.3 103260 62
2004-02-10 08:40:54 51°19.341 2°40.698 7.1 128 5.3 103260 62
2004-02-10 08:41:00 51°19.339 2°40.7 5.4 128 5.3 103260 61
2004-02-10 08:41:04 51°19.338 2°40.701 6.9 125 5.3 103260 61
2004-02-10 08:41:09 51°19.336 2°40.702 6.8 128 5.3 103250 60
2004-02-10 08:41:14 51°19.335 2°40.703 7.7 123 5.3 103250 60
2004-02-10 08:41:18 51°19.333 2°40.704 7.1 119 5.3 103260 61
2004-02-10 08:41:24 51°19.331 2°40.704 7.5 113 5.3 103260 61
2004-02-10 08:41:29 51°19.329 2°40.705 7.9 122 5.3 103260 62
2004-02-10 08:41:34 51°19.327 2°40.705 6.8 112 5.3 103260 62
2004-02-10 08:41:40 51°19.325 2°40.706 6.9 116 5.3 103260 60
2004-02-10 08:41:44 51°19.324 2°40.706 6.5 106 5.3 103260 60
2004-02-10 08:41:49 51°19.322 2°40.706 6.6 116 5.3 103250 61
2004-02-10 08:41:54 51°19.32 2°40.706 6.4 110 5.3 103250 61
2004-02-10 08:41:58 51°19.318 2°40.706 6.5 111 5.3 103250 62
2004-02-10 08:42:04 51°19.316 2°40.706 7.1 98 5.3 103250 62
2004-02-10 08:42:09 51°19.314 2°40.705 7.7 102 5.3 103260 62
2004-02-10 08:42:14 51°19.312 2°40.705 7.6 100 5.3 103260 62
2004-02-10 08:42:20 51°19.31 2°40.704 7.7 99 5.3 103260 62
2004-02-10 08:42:24 51°19.309 2°40.704 7.6 98 5.3 103260 62
2004-02-10 08:42:29 51°19.307 2°40.703 7.1 97 5.3 103260 62
2004-02-10 08:42:34 51°19.305 2°40.702 6.8 99 5.3 103260 62
2004-02-10 08:42:39 51°19.303 2°40.701 7.3 98 5.3 103260 62
2004-02-10 08:42:44 51°19.301 2°40.701 7.2 95 5.3 103260 62
2004-02-10 08:42:49 51°19.299 2°40.699 7 93 5.3 103260 61
2004-02-10 08:42:54 51°19.297 2°40.698 6.7 94 5.3 103260 61
2004-02-10 08:42:58 51°19.296 2°40.698 7.2 95 5.3 103260 63
2004-02-10 08:43:05 51°19.294 2°40.696 7.3 95 5.3 103260 63
2004-02-10 08:43:10 51°19.292 2°40.694 7 100 5.3 103260 64
2004-02-10 08:43:14 51°19.29 2°40.694 7.1 90 5.3 103260 64
2004-02-10 08:43:20 51°19.289 2°40.693 6.8 95 5.3 103260 62
2004-02-10 08:43:24 51°19.287 2°40.692 7.1 94 5.3 103260 62
2004-02-10 08:43:29 51°19.286 2°40.691 7.6 105 5.4 103260 61
2004-02-10 08:43:34 51°19.284 2°40.689 6.8 103 5.4 103260 61
2004-02-10 08:43:40 51°19.282 2°40.688 7.2 101 5.3 103260 61
2004-02-10 08:43:44 51°19.281 2°40.687 6.8 102 5.3 103260 61
2004-02-10 08:43:49 51°19.28 2°40.686 7.1 104 5.3 103260 62
2004-02-10 08:43:54 51°19.278 2°40.685 7.1 103 5.3 103260 62
2004-02-10 08:43:59 51°19.276 2°40.684 6.9 106 5.3 103260 62
2004-02-10 08:44:04 51°19.274 2°40.683 7.5 103 5.3 103260 62
2004-02-10 08:44:09 51°19.273 2°40.682 8.1 106 5.3 103260 62
2004-02-10 08:44:14 51°19.271 2°40.681 7.9 104 5.3 103260 62
2004-02-10 08:44:20 51°19.269 2°40.68 8 108 5.3 103260 62
2004-02-10 08:44:24 51°19.268 2°40.68 7.9 107 5.3 103260 62
2004-02-10 08:44:29 51°19.266 2°40.679 7.5 111 5.3 103260 64
2004-02-10 08:44:34 51°19.264 2°40.678 7.3 113 5.3 103260 64
2004-02-10 08:44:40 51°19.262 2°40.677 7.5 109 5.3 103260 62
2004-02-10 08:44:44 51°19.261 2°40.676 7.3 110 5.3 103260 62
2004-02-10 08:44:49 51°19.259 2°40.675 7.5 110 5.3 103260 61
2004-02-10 08:44:54 51°19.257 2°40.674 6.8 124 5.3 103260 61
2004-02-10 08:44:58 51°19.256 2°40.674 7.1 115 5.3 103260 60
2004-02-10 08:45:04 51°19.254 2°40.673 7.1 114 5.3 103260 60
2004-02-10 08:45:09 51°19.252 2°40.671 7 111 5.3 103260 61
2004-02-10 08:45:14 51°19.251 2°40.671 7.1 107 5.3 103260 61
2004-02-10 08:45:20 51°19.248 2°40.669 7.3 114 5.3 103250 61
2004-02-10 08:45:24 51°19.247 2°40.668 7.8 116 5.3 103250 61
2004-02-10 08:45:29 51°19.245 2°40.667 6.6 114 5.3 103250 62
2004-02-10 08:45:34 51°19.244 2°40.666 7.1 118 5.3 103250 62
2004-02-10 08:45:38 51°19.243 2°40.665 6.3 117 5.3 103260 64
2004-02-10 08:45:45 51°19.24 2°40.664 7.9 119 5.3 103260 64
2004-02-10 08:45:49 51°19.239 2°40.663 7.6 118 5.3 103260 62
2004-02-10 08:45:54 51°19.238 2°40.662 7.5 124 5.3 103260 62
2004-02-10 08:45:58 51°19.236 2°40.662 7.7 124 5.3 103270 62
2004-02-10 08:46:05 51°19.234 2°40.661 7.9 123 5.3 103270 62
2004-02-10 08:46:09 51°19.233 2°40.66 7.2 125 5.3 103260 63
2004-02-10 08:46:14 51°19.232 2°40.659 7.5 126 5.3 103260 63
2004-02-10 08:46:19 51°19.23 2°40.659 7.5 127 5.3 103250 63
2004-02-10 08:46:24 51°19.229 2°40.658 7.5 129 5.3 103250 63
2004-02-10 08:46:29 51°19.227 2°40.658 6.9 125 5.3 103250 61
2004-02-10 08:46:34 51°19.226 2°40.657 6.5 126 5.3 103250 61
2004-02-10 08:46:40 51°19.224 2°40.658 6.5 131 5.3 103260 60
2004-02-10 08:46:44 51°19.223 2°40.657 6.6 124 5.3 103260 60
2004-02-10 08:46:49 51°19.221 2°40.657 6.4 123 5.3 103260 61
2004-02-10 08:46:54 51°19.221 2°40.657 7 119 5.3 103260 61
2004-02-10 08:47:00 51°19.218 2°40.657 7.3 122 5.3 103270 62
2004-02-10 08:47:04 51°19.217 2°40.657 7.5 120 5.3 103270 62
2004-02-10 08:47:09 51°19.215 2°40.657 7 121 5.3 103260 62
2004-02-10 08:47:14 51°19.214 2°40.657 8.3 118 5.3 103260 62
2004-02-10 08:47:18 51°19.212 2°40.657 7.5 116 5.3 103260 62
2004-02-10 08:47:24 51°19.21 2°40.657 7.4 109 5.3 103260 62
2004-02-10 08:47:29 51°19.208 2°40.656 7.4 105 5.3 103260 62
2004-02-10 08:47:34 51°19.206 2°40.656 8 100 5.3 103260 62
2004-02-10 08:47:40 51°19.204 2°40.655 7.2 98 5.3 103260 64
2004-02-10 08:47:44 51°19.202 2°40.655 8 94 5.3 103260 64
2004-02-10 08:47:49 51°19.2 2°40.654 7.5 96 5.3 103260 65
2004-02-10 08:47:54 51°19.198 2°40.653 7.3 94 5.3 103260 65
2004-02-10 08:47:59 51°19.196 2°40.652 7.1 85 5.3 103260 64
2004-02-10 08:48:04 51°19.194 2°40.651 8 88 5.3 103260 64
2004-02-10 08:48:09 51°19.192 2°40.65 6.2 81 5.3 103260 62
2004-02-10 08:48:14 51°19.19 2°40.649 7.8 83 5.3 103260 62
2004-02-10 08:48:20 51°19.187 2°40.647 6.1 78 5.3 103260 62
2004-02-10 08:48:25 51°19.185 2°40.646 5.9 76 5.3 103260 62
2004-02-10 08:48:29 51°19.183 2°40.645 6.6 67 5.3 103260 63